Date,TemperatureHighF,TemperatureAvgF,TemperatureLowF,DewpointHighF,DewpointAvgF,DewpointLowF,HumidityHigh,HumidityAvg,HumidityLow,PressureMaxIn,PressureMinIn,WindSpeedMaxMPH,WindSpeedAvgMPH,GustSpeedMaxMPH,PrecipitationSumIn
2013-10-1,76,76,76,-100,-100,-100,0,0,100,0.00,40.00,0,-999,0,0.00
2013-10-2,85,74,71,-100,-100,-100,0,0,100,0.00,40.00,0,-999,0,0.00
2013-10-3,84,75,71,-100,-100,-100,0,0,100,0.00,40.00,0,-999,0,0.00
2013-10-4,82,76,71,-100,-100,-100,0,0,100,0.00,40.00,0,-999,0,0.00
2013-10-5,85,77,72,-100,-100,-100,0,0,100,0.00,40.00,0,-999,0,0.00
2013-10-6,73,64,56,-100,-100,-100,0,0,100,0.00,40.00,0,-999,0,0.00
2013-10-7,73,60,52,-100,-100,-100,0,0,100,0.00,40.00,0,-999,0,0.00
2013-10-8,74,61,51,-100,-100,-100,0,0,100,0.00,40.00,0,-999,0,0.00
2013-10-9,78,63,50,-100,-100,-100,0,0,100,0.00,40.00,0,-999,0,0.00
2013-10-10,80,66,52,-100,-100,-100,0,0,100,0.00,40.00,0,-999,0,0.00
2013-10-11,82,70,58,-100,-100,-100,0,0,100,0.00,40.00,0,-999,0,0.00
2013-10-12,86,76,68,-100,-100,-100,0,0,100,0.00,40.00,0,-999,0,0.00
2013-10-13,80,72,68,-100,-100,-100,0,0,100,0.00,40.00,0,-999,0,0.00
2013-10-14,83,73,68,-100,-100,-100,0,0,100,0.00,40.00,0,-999,0,0.00
2013-10-15,83,75,67,-100,-100,-100,0,0,100,0.00,40.00,0,-999,0,0.00
2013-10-16,80,72,68,-100,-100,-100,0,0,100,0.00,40.00,0,-999,0,0.00
2013-10-17,69,64,60,-100,-100,-100,0,0,100,0.00,40.00,0,-999,0,0.00
2013-10-18,67,59,54,-100,-100,-100,0,0,100,0.00,40.00,0,-999,0,0.00
2013-10-19,62,58,51,-100,-100,-100,0,0,100,0.00,40.00,0,-999,0,0.00
2013-10-20,73,57,43,-100,-100,-100,0,0,100,0.00,40.00,0,-999,0,0.00
2013-10-21,70,59,51,-100,-100,-100,0,0,100,0.00,40.00,0,-999,0,0.00
2013-10-22,66,59,51,-100,-100,-100,0,0,100,0.00,40.00,0,-999,0,0.00
2013-10-23,73,59,47,-100,-100,-100,0,0,100,0.00,40.00,0,-999,0,0.00
2013-10-24,76,62,47,-100,-100,-100,0,0,100,0.00,40.00,0,-999,0,0.00
2013-10-25,65,57,51,-100,-100,-100,0,0,100,0.00,40.00,0,-999,0,0.00
2013-10-26,75,53,42,-100,-100,-100,0,0,100,0.00,40.00,0,-999,0,0.00
2013-10-27,72,60,51,-100,-100,-100,0,0,100,0.00,40.00,0,-999,0,0.00
2013-10-28,77,67,58,-100,-100,-100,0,0,100,0.00,40.00,0,-999,0,0.00
2013-10-29,77,68,62,-100,-100,-100,0,0,100,0.00,40.00,0,-999,0,0.00
2013-10-30,74,69,64,-100,-100,-100,0,0,100,0.00,40.00,0,-999,0,0.00
2013-10-31,75,69,62,-100,-100,-100,0,0,100,0.00,40.00,0,-999,0,0.00